This is the latest recevied weather packets stored in our database for station/object HI8S-13. If no packets are shown the sender has not sent any weather packets the latest 10 day(s).
| Time | Temp. | Humidity | Pressure | Rain* | Wind** | Luminosity | Snow |
|---|---|---|---|---|---|---|---|
| 1777130015 | 30° C | 67% | 1012.8 hPa | 0 mm | - | - | - |
| 1777129708 | 30.56° C | 67% | 1012.8 hPa | 0 mm | - | - | - |
| 1777129414 | 30.56° C | 66% | 1012.8 hPa | 0 mm | - | - | - |
| 1777129107 | 30° C | 66% | 1012.7 hPa | 0 mm | - | - | - |
| 1777128817 | 30° C | 66% | 1012.8 hPa | 0 mm | - | - | - |
| 1777128510 | 30° C | 67% | 1012.9 hPa | 0 mm | - | - | - |
| 1777128216 | 30° C | 66% | 1012.8 hPa | 0 mm | - | - | - |
| 1777127908 | 30° C | 66% | 1012.7 hPa | 0 mm | - | - | - |
| 1777127623 | 30° C | 66% | 1012.9 hPa | 0 mm | - | - | - |
| 1777127316 | 30° C | 66% | 1012.8 hPa | 0 mm | - | - | - |
| 1777127009 | 30° C | 66% | 1012.9 hPa | 0 mm | - | - | - |
| 1777126723 | 29.44° C | 68% | 1012.9 hPa | 0 mm | - | - | - |
| 1777126413 | 29.44° C | 68% | 1012.8 hPa | 0 mm | - | - | - |
| 1777126118 | 29.44° C | 71% | 1012.6 hPa | 0 mm | - | - | - |
| 1777125811 | 28.89° C | 72% | 1012.7 hPa | 0 mm | - | - | - |
| 1777125522 | 28.89° C | 72% | 1012.8 hPa | 0 mm | - | - | - |
| 1777125216 | 28.33° C | 73% | 1012.9 hPa | 0 mm | - | - | - |
| 1777124909 | 28.33° C | 73% | 1012.8 hPa | 0 mm | - | - | - |
| 1777124620 | 28.89° C | 73% | 1012.9 hPa | 0 mm | - | - | - |
| 1777124313 | 28.33° C | 72% | 1012.8 hPa | 0 mm | - | - | - |
| 1777124017 | 28.89° C | 72% | 1012.8 hPa | 0 mm | - | - | - |
| 1777123712 | 28.89° C | 71% | 1012.7 hPa | 0 mm | - | - | - |
| 1777123405 | 28.89° C | 71% | 1012.6 hPa | 0 mm | - | - | - |
| 1777123119 | 28.89° C | 72% | 1012.5 hPa | 0 mm | - | - | - |
| 1777122812 | 28.89° C | 70% | 1012.4 hPa | 0 mm | - | - | - |
* Rain latest hour (hover to see other rain measurements)
** Current wind speed in m/s (hover to see current wind gust speed)